Location: Vancouver
(49.2500°N, 123.1330°W)
Time: 04:06:33
(UTC-07:00)

Daily predictions for brighter satellites

Satellite Brightness Start Highest point End
(mag) Time Altitude Azimuth Time Altitude Azimuth Time Altitude Azimuth
Cosmos 2082 Rocket 4.1 00:09:03 26° NNW 00:09:03 26° NNW 00:12:19 10° NNE
Cosmos 2322 Rocket 4.4 00:17:37 10° NW 00:19:22 20° NW 00:19:22 20° NW
Cosmos 2360 Rocket 4.3 00:27:45 10° NNW 00:29:36 22° NNW 00:29:36 22° NNW
Cosmos 2333 Rocket 4.3 00:47:58 10° NNW 00:50:13 22° N 00:50:13 22° N
SL-16 R/B 4.4 01:16:45 10° NNW 01:19:46 21° NNE 01:19:46 21° NNE
Cosmos 2237 Rocket 4.4 01:26:34 10° NNW 01:28:29 21° NNW 01:28:29 21° NNW
SL-16 R/B 4.0 02:04:13 31° NE 02:04:13 31° NE 02:09:11 10° N
ATLAS 5 CENTAUR R/B 4.3 02:13:37 19° N 02:13:55 19° N 02:17:52 10° NE
Cosmos 2297 Rocket 3.9 02:30:50 28° NE 02:30:50 28° NE 02:33:39 10° NE
CZ-2D R/B 4.3 02:25:28 10° NE 02:27:56 19° ENE 02:27:56 19° ENE
USA 215 4.0 02:32:22 10° ENE 02:38:33 46° N 02:38:56 46° NNW
Lacrosse 5 rocket 4.4 03:04:00 12° NE 03:04:00 12° NE 03:04:17 10° NE
ARIANE 5 R/B 4.2 02:57:13 10° NNE 03:00:38 28° ENE 03:00:38 28° ENE
SL-16 R/B 4.4 03:00:25 10° NNW 03:01:36 17° NNW 03:01:36 17° NNW
CZ-4C R/B 3.0 03:15:41 51° NE 03:15:41 51° NE 03:20:20 10° NE
ADEOS Rocket 3.5 03:21:30 10° N 03:26:40 53° NNW 03:26:40 53° NNW
Cosmos 2227 Rocket 3.0 03:30:35 46° N 03:30:35 46° N 03:34:48 10° NNE
MOS 1 Rocket 4.1 03:31:47 10° NNE 03:35:55 56° NE 03:35:55 56° NE
Resurs 1-4 Rocket 2.6 03:32:04 10° NNE 03:36:26 58° NE 03:36:26 58° NE
Cosmos 1627 Rocket 4.5 03:32:39 10° N 03:38:18 75° NNE 03:38:18 75° NNE
Gbstr 26 Del rocket 4.3 03:40:02 62° WNW 03:41:31 85° NNE 03:49:41 10° ESE
Cosmos 407 Rocket 4.2 03:41:56 51° E 03:41:56 51° E 03:46:45 10° NNE
Cosmos 1634 Rocket 3.9 03:46:33 83° SE 03:46:43 84° E 03:53:03 10° N
SL-16 R/B 3.3 03:49:19 39° NW 03:49:19 39° NW 03:53:19 10° NNW
Cosmos 2082 4.3 03:53:36 47° NNW 03:53:36 47° NNW 03:58:28 10° NNE
ATLAS 5 CENTAUR R/B 4.3 03:56:06 10° NNW 04:00:30 24° NNE 04:05:17 10° ENE
Meteor 1-11 Rocket 4.2 03:55:28 10° NNW 03:59:43 50° NW 03:59:43 50° NW
ADEOS 3.5 03:58:17 10° NNE 04:03:28 81° E 04:03:28 81° E
CZ-2D R/B 4.3 04:02:32 10° NNE 04:06:01 50° ENE 04:06:01 50° ENE
Cosmos 44 4.1 04:10:12 39° N 04:10:12 39° N 04:13:21 10° NNE
Okean 1 Rocket 3.5 04:04:50 10° N 04:08:50 60° NE 04:08:50 60° NE
CZ-2D R/B 2.3 04:04:43 10° N 04:09:15 58° NW 04:09:15 58° NW
Cosmos 2297 Rocket 3.0 04:12:39 37° NW 04:12:39 37° NW 04:17:43 10° NNE
Cosmos 1428 Rocket 4.3 04:06:41 10° N 04:12:51 84° W 04:14:24 54° S
Cosmos 1655 Rocket 3.9 04:07:51 10° N 04:14:13 80° W 04:15:45 54° S
Cosmos 44 Rocket 3.9 04:17:24 43° NNW 04:17:24 43° NNW 04:21:24 10° NNE
Cosmos 1140 Rocket 4.1 04:17:34 40° SSE 04:18:58 52° ESE 04:24:03 10° NNE
Cosmos 1190 Rocket 3.9 04:20:38 74° WNW 04:20:40 74° WNW 04:25:59 10° NNE
USA 215 3.9 04:14:39 10° E 04:20:57 53° NNE 04:26:15 15° NW
Meteor 2-9 4.5 04:16:19 10° NNW 04:21:46 77° W 04:22:15 71° SW
Cosmos 1441 Rocket 3.9 04:23:47 50° ENE 04:23:47 50° ENE 04:27:09 10° NNE
Cosmos 1674 Rocket 3.7 04:24:39 68° N 04:24:39 68° N 04:28:34 10° N
Meteor 1-27 Rocket 3.7 04:30:13 56° W 04:30:22 56° WNW 04:35:50 10° N
Cosmos 1975 4.3 04:29:11 10° N 04:33:02 38° ENE 04:36:52 10° SE
Cosmos 2026 Rocket 4.3 04:27:47 10° NNW 04:33:06 44° WNW 04:33:06 44° WNW
IRS-1D 4.1 04:32:39 10° N 04:37:38 40° WNW 04:37:39 40° WNW
Okean 3 3.3 04:38:45 81° SSW 04:38:57 87° W 04:43:19 10° N
Lacrosse 5 rocket 2.6 04:39:42 27° NNW 04:40:04 28° NNW 04:43:23 10° NE
Cosmos 1954 Rocket 4.0 04:39:26 49° SSW 04:40:57 87° ESE 04:46:19 10° NNE
ARIANE 5 R/B 3.0 04:36:10 10° N 04:40:58 42° WNW 04:40:58 42° WNW
Cosmos 676 Rocket 3.9 04:43:38 53° SW 04:44:52 75° WNW 04:50:14 10° NNE
Meteor 1-5 Rocket 4.5 04:39:13 10° NNW 04:44:58 51° W 04:46:10 44° SW
Cosmos 614 Rocket 4.0 04:44:24 39° S 04:46:19 76° ESE 04:51:28 10° NNE
Cosmos 1570 Rocket 3.9 04:46:13 10° NNW 04:51:32 90° WNW 04:56:52 10° SSE
Cosmos 2279 Rocket 4.1 04:50:34 40° SW 04:52:33 56° WNW 04:58:40 10° N
Cosmos 1975 Rocket 3.5 04:49:43 21° S 04:52:33 61° E 04:56:54 10° NNE
Cosmos 1455 Rocket 4.2 04:50:37 10° N 04:54:48 44° ENE 04:58:56 10° SSE
CZ-4B R/B 3.8 04:53:12 10° NNE 04:57:16 47° E 05:00:34 13° S
Cosmos 2208 Rocket 3.9 04:52:23 10° NNW 04:57:45 89° WSW 05:03:00 10° SSE
ADEOS II 2.1 04:56:47 10° NNE 05:02:05 80° ESE 05:06:29 15° S
CZ-4C R/B 3.4 05:00:52 24° WNW 05:03:20 34° NNW 05:09:12 10° NE
Cosmos 1743 3.8 05:01:26 10° N 05:05:15 47° ENE 05:09:02 10° SSE
Cosmos 332 Rocket 3.8 05:03:17 10° NNW 05:08:08 84° ENE 05:12:56 10° SSE
Abrixas rocket 3.2 05:08:52 34° S 05:09:09 35° SSE 05:12:09 10° E
Cosmos 1943 3.4 05:04:43 10° NW 05:10:11 48° WSW 05:15:36 10° S
Cosmos 2227 4.4 05:08:11 34° WSW 05:10:21 52° NW 05:15:54 10° NNE
Cosmos 371 Rocket 3.4 05:08:23 10° NNW 05:13:19 80° ENE 05:18:10 10° SSE
UNKNOWN OBJECT B 4.0 05:10:42 10° N 05:13:37 25° WNW 05:13:37 25° WNW
Cosmos 2227 Rocket 4.0 05:12:24 14° WNW 05:14:29 16° NW 05:18:00 10° N
Cosmos 405 Rocket 3.7 05:15:00 30° WNW 05:15:00 30° WNW 05:18:27 10° N
Resurs 1-4 Rocket 3.5 05:12:53 10° N 05:16:43 21° WNW 05:17:30 20° WNW
Cosmos 1437 Rocket 2.9 05:18:14 10° NNW 05:22:02 50° W 05:25:53 10° S
MOS 1-B 4.3 05:17:16 10° NNE 05:23:05 74° WNW 05:28:40 11° SSW
Cosmos 2263 Rocket 2.2 05:19:21 17° SSW 05:23:52 89° ESE 05:29:37 10° NNE
Meteor 1-12 Rocket 4.3 05:18:14 10° NNW 05:24:15 73° W 05:30:14 10° S
Cosmos 1378 Rocket 4.1 05:23:08 31° WSW 05:24:19 37° WNW 05:28:25 10° N
CZ-2C R/B 4.0 05:27:57 10° SSE 05:32:39 74° ENE 05:37:26 10° NNW
ASTEX 1 3.8 05:28:14 10° N 05:32:53 43° WNW 05:36:32 16° SW
Molniya-1 3.4 05:33:32 39° ESE 05:33:32 39° ESE 05:34:59 10° ENE
ATLAS 3B R/B 3.8 05:26:49 10° S 05:33:46 45° ESE 05:40:27 10° NE
Okean O Rocket 1.5 05:30:39 10° NNE 05:35:01 89° WNW 05:39:23 10° SSW
Meteor 1-4 Rocket 2.4 05:34:10 10° NNW 05:37:42 87° ENE 05:41:10 10° SSE
Lacrosse 4 Rocket 4.2 05:36:03 10° N 05:39:09 18° NE 05:42:10 10° E
Cosmos 1812 3.8 05:38:59 24° W 05:39:51 26° WNW 05:43:11 10° NNW
Cosmos 220 Rocket 4.1 05:42:07 16° SW 05:45:25 58° WNW 05:49:44 10° NNE
ATLAS 5 CENTAUR R/B 3.0 05:40:39 10° NW 05:46:19 58° NE 05:52:36 10° ESE
CZ-2D R/B 4.0 05:47:00 10° NNW 05:48:58 12° NW 05:50:34 11° WNW
Cosmos 1741 Rocket 4.2 05:46:14 12° SW 05:50:53 55° WNW 05:56:05 10° NNE
Cosmos 1500 4.5 05:48:18 10° NW 05:51:07 20° W 05:51:55 19° WSW
USA 116 3.1 05:48:55 10° SSE 05:52:07 87° E 05:55:14 10° NNW
BREEZE-M DEB (TANK) 3.2 05:48:17 11° WNW 05:53:50 45° SSW 05:56:25 10° SE
Intercosmos 25 Rocket 3.1 05:50:15 10° SSW 05:54:13 59° W 05:57:24 10° N
CZ-4B R/B 3.1 05:49:38 10° NNE 05:54:56 79° WNW 06:00:15 10° SSW
Cosmos 1271 Rocket 4.3 05:51:28 10° N 05:55:15 41° ENE 05:59:04 10° SE
Cosmos 2297 Rocket 4.3 05:56:09 10° NW 05:58:16 12° NNW 06:00:23 10° N
Tiangong 1 3.1 05:58:04 11° SSW 05:58:27 11° SSW 05:59:21 10° S
SL-8 R/B 4.1 05:55:21 14° SW 05:59:22 57° SSE 06:04:05 10° E
Cosmos 841 Rocket 3.6 05:55:01 10° NNW 06:00:14 82° ENE 06:05:27 10° SSE
Cosmos 468 Rocket 4.2 05:55:17 10° NNW 06:00:24 48° WSW 06:05:28 10° S
Cosmos 304 Rocket 4.0 05:55:36 10° NNW 06:00:27 76° ENE 06:05:17 10° SSE
Meteor 2-4 Rocket 4.1 05:56:51 10° S 06:02:24 72° E 06:08:10 10° NNE
USA 215 3.3 05:57:13 10° SE 06:03:47 82° SW 06:10:22 10° WNW
Meteor 1-19 Rocket 4.3 05:58:01 10° SSW 06:03:54 83° WNW 06:09:45 10° N
COSMO-SKYMED 1 3.1 06:01:38 10° SSE 06:05:55 65° ENE 06:10:14 10° N
Cosmos 1975 4.1 06:06:11 10° NW 06:09:19 21° W 06:12:27 10° SW
Meteor 2-11 Rocket 4.4 06:03:47 10° SSW 06:09:50 73° W 06:15:57 10° N
TELKOM 3 4.1 06:09:47 11° SW 06:11:49 32° SSE 06:13:46 10° E
Cosmos 2292 Rocket 4.0 06:12:18 10° N 06:16:34 81° E 06:22:20 10° S
MTI 4.0 06:14:14 10° S 06:17:22 46° W 06:20:33 10° NNW
Meteor 2-9 Rocket 4.2 06:14:05 10° NNW 06:19:24 61° W 06:24:49 10° S
Lacrosse 5 rocket 2.8 06:16:45 10° NW 06:20:06 28° N 06:23:18 10° ENE
Cosmos 1763 Rocket 3.6 06:15:47 10° NNW 06:20:57 55° WSW 06:26:07 10° S
GEOS 3 Rocket 3.8 06:17:29 10° SSE 06:22:36 56° SW 06:27:49 10° NW
Cosmos 540 Rocket 3.9 06:17:37 10° NNW 06:22:45 67° ENE 06:27:52 10° SSE
EO 1 Del DPAF 3.4 06:19:51 10° S 06:23:34 50° W 06:27:19 10° NNW
Meteor 1-31 Rocket 3.0 06:21:12 10° N 06:24:59 50° WNW 06:28:44 10° SSW
COSMOS 2406 3.3 06:20:00 10° NNW 06:25:44 67° WSW 06:31:27 10° SSE
NOAA 6 4.3 06:24:11 10° NNE 06:29:25 79° ESE 06:34:37 10° SSW
ATLAS CENTAUR R/B 4.0 06:27:12 10° SSE 06:29:54 18° ESE 06:32:33 10° ENE
Cosmos 1607 4.4 06:26:26 10° WSW 06:32:28 47° NW 06:38:41 10° NE
